TimeCDT,TemperatureF,Dew PointF,Humidity,Sea Level PressureIn,VisibilityMPH,Wind Direction,Wind SpeedMPH,Gust SpeedMPH,PrecipitationIn,Events,Conditions,WindDirDegrees,DateUTC
12:51 AM,68.0,57.0,68,30.07,10.0,ESE,3.5,-,N/A,,Scattered Clouds,110,2013-05-02 05:51:00
1:51 AM,66.0,57.0,73,30.06,10.0,East,3.5,-,N/A,,Scattered Clouds,90,2013-05-02 06:51:00
2:51 AM,63.0,55.9,78,30.05,10.0,East,4.6,-,N/A,,Scattered Clouds,80,2013-05-02 07:51:00
3:51 AM,64.0,57.0,78,30.05,9.0,Calm,Calm,-,N/A,,Scattered Clouds,0,2013-05-02 08:51:00
4:51 AM,63.0,57.0,81,30.05,9.0,Calm,Calm,-,N/A,,Scattered Clouds,0,2013-05-02 09:51:00
5:51 AM,64.0,57.0,78,30.06,9.0,Calm,Calm,-,N/A,,Mostly Cloudy,0,2013-05-02 10:51:00
6:51 AM,64.9,59.0,81,30.09,8.0,Calm,Calm,-,N/A,,Mostly Cloudy,0,2013-05-02 11:51:00
7:51 AM,64.9,59.0,81,30.11,8.0,NW,8.1,-,N/A,,Mostly Cloudy,320,2013-05-02 12:51:00
8:51 AM,63.0,55.9,78,30.15,10.0,NW,9.2,-,0.00,Rain,Light Rain,320,2013-05-02 13:51:00
9:12 AM,60.8,53.6,77,30.16,10.0,NW,13.8,-,0.00,,Mostly Cloudy,310,2013-05-02 14:12:00
9:47 AM,60.8,51.8,72,30.16,10.0,WNW,11.5,-,0.00,,Mostly Cloudy,300,2013-05-02 14:47:00
9:51 AM,61.0,51.1,70,30.14,10.0,WNW,12.7,-,0.00,,Mostly Cloudy,300,2013-05-02 14:51:00
10:51 AM,64.0,51.1,63,30.14,10.0,NW,10.4,-,N/A,,Scattered Clouds,320,2013-05-02 15:51:00
11:51 AM,66.0,52.0,60,30.13,10.0,NW,9.2,18.4,N/A,,Scattered Clouds,310,2013-05-02 16:51:00
12:51 PM,68.0,53.1,59,30.12,10.0,NNW,6.9,-,N/A,,Mostly Cloudy,330,2013-05-02 17:51:00
1:51 PM,69.1,53.1,57,30.11,10.0,WNW,10.4,-,N/A,,Scattered Clouds,290,2013-05-02 18:51:00
2:51 PM,70.0,53.1,55,30.10,10.0,NW,13.8,19.6,N/A,,Scattered Clouds,310,2013-05-02 19:51:00
3:51 PM,64.9,50.0,58,30.09,10.0,NW,15.0,23.0,N/A,,Mostly Cloudy,320,2013-05-02 20:51:00
4:51 PM,61.0,46.9,60,30.11,10.0,WNW,12.7,-,N/A,,Overcast,300,2013-05-02 21:51:00
5:51 PM,57.0,48.0,72,30.12,7.0,NW,11.5,20.7,0.00,Rain,Light Rain,320,2013-05-02 22:51:00
6:51 PM,54.0,48.0,80,30.12,7.0,NW,11.5,21.9,0.01,Rain,Light Rain,310,2013-05-02 23:51:00
7:51 PM,51.1,46.0,83,30.14,5.0,WNW,10.4,21.9,0.03,Rain,Light Rain,300,2013-05-03 00:51:00
8:21 PM,48.2,44.6,87,30.15,5.0,NW,12.7,23.0,0.01,Rain,Light Rain,310,2013-05-03 01:21:00
8:51 PM,48.0,45.0,89,30.18,5.0,West,10.4,-,0.03,Rain,Light Rain,280,2013-05-03 01:51:00
8:57 PM,48.2,44.6,87,30.17,5.0,NW,10.4,-,0.01,Rain,Heavy Rain,310,2013-05-03 01:57:00
9:00 PM,48.2,44.6,87,30.16,5.0,NW,10.4,-,0.05,Rain,Rain,310,2013-05-03 02:00:00
9:37 PM,46.4,42.8,87,30.17,6.0,WNW,10.4,-,0.14,Rain,Light Rain,300,2013-05-03 02:37:00
9:51 PM,46.9,43.0,86,30.17,6.0,WNW,8.1,-,0.15,Rain,Light Rain,300,2013-05-03 02:51:00
10:18 PM,46.4,42.8,87,30.15,5.0,NW,12.7,-,0.04,Rain,Light Rain,320,2013-05-03 03:18:00
10:51 PM,46.0,43.0,89,30.13,5.0,NW,12.7,23.0,0.07,Rain,Light Rain,320,2013-05-03 03:51:00
11:22 PM,46.4,42.8,87,30.13,7.0,NNW,11.5,-,0.01,Rain,Light Rain,340,2013-05-03 04:22:00
11:51 PM,46.0,42.1,86,30.12,7.0,NNW,9.2,-,0.02,Rain,Light Rain,330,2013-05-03 04:51:00